Voltar ao catálogo

ARIANE 3 DEB

AtivoGTO
NORAD 27027·DEBRIS·🇫🇷 France

Lançado Sep 8, 1988 de Guiana Space Centre

Loading…

TLE

ObsoletoSource: Space-Track

Época: Sep 13, 2026, 03:39 UTC

1 27027U 88081K   26256.15277126 -.00000205  00000-0 -28486-3 0  9995
2 27027   8.2941 266.8738 7108556  94.9366 352.0860  2.21370590221191

Acompanhe ARIANE 3 DEB em tempo real com AllMySat

Download on the App Store